Change the Weather History Date:

Tuesday, June 10, 2014

  Actual Average Record
Temperature  
Mean Temperature 78 °F -  
Max Temperature 86 °F 78 °F 84 °F (2006)
Min Temperature 69 °F 67 °F 60 °F (2008)
Cooling Degree Days 12    
Growing Degree Days 28 (Base 50)    
Moisture  
Dew Point 67 °F    
Average Humidity 75    
Maximum Humidity 95    
Minimum Humidity 43    
Precipitation  
Precipitation 0.04 in - - ()
Sea Level Pressure  
Sea Level Pressure 29.96 in    
Wind  
Wind Speed 9 mph ()    
Max Wind Speed 82 mph    
Max Gust Speed -    
Visibility 4.4 miles    
Events Fog , Rain , Thunderstorm    
Averages and records for this station are not official NWS values.
T = Trace of Precipitation, MM = Missing Value Source: Averaged Metar Reports

Daily Weather History Graph

Daily Weather History Graph

Search for Another Location

Airport or City:

Trip Planner

Search our weather history database for the weather conditions in past years. The results will help you decide how hot, cold, wet, or windy it might be!

Date:

Astronomy

Jun. 10, 2014 Rise Set
Actual Time 5:15 AM CST 5:56 PM CST
Civil Twilight 4:52 AM CST 6:19 PM CST
Nautical Twilight 4:25 AM CST 6:46 PM CST
Astronomical Twilight 3:57 AM CST 7:14 PM CST
Moon 3:43 PM CST (6/10) 2:52 AM CST (6/10)
Length of Visible Light 13h 27m
Length of Day
12h 41m
Waxing Gibbous, 92% of the Moon is Illuminated
Jun 10
Waxing Gibbous
Jun 12
Full
Jun 19
Last Quarter
Jun 27
New
Jul 5
First Quarter

Hourly Weather History & Observations

Time (CST) Temp. Heat Index Dew Point Humidity Pressure Visibility Wind Dir Wind Speed Gust Speed Precip Events Conditions
6:00 AM 72 °F - 62 °F 62% 29.85 in 6 mi ESE 9.2 mph - -   Overcast
6:00 AM 71.6 °F - 62.6 °F 73% 30.01 in - ESE 9.2 mph - N/A   Clear
7:00 AM 73.4 °F - 64.4 °F 73% 30.02 in - ESE 10.4 mph - N/A   Clear
8:00 AM 78.8 °F - 62.6 °F 57% 30.04 in - ESE 6.9 mph - N/A   Clear
9:00 AM 81 °F - 62 °F 43% 29.86 in 6 mi East 5.8 mph - -   Clear
9:00 AM 80.6 °F 81.8 °F 62.6 °F 54% 30.04 in - East 5.8 mph - N/A   Clear
10:00 AM 82.4 °F 84.6 °F 66.2 °F 58% 30.02 in - ESE 4.6 mph - N/A   Clear
10:12 AM 82.4 °F 84.6 °F 66.2 °F 58% 30.01 in - WNW 8.1 mph - N/A   Clear
11:00 AM 80.6 °F 83.2 °F 68.0 °F 65% 30.01 in 6.2 mi West 12.7 mph - N/A   Partly Cloudy
12:00 PM - - 68 °F % 29.82 in 0 mi NNE 81.7 mph - -   Scattered Clouds
12:00 PM 80.6 °F 83.2 °F 68.0 °F 65% 30.01 in 6.2 mi West 9.2 mph - N/A   Scattered Clouds
1:00 PM 78.8 °F - 68.0 °F 69% 29.99 in 6.2 mi West 12.7 mph - N/A   Scattered Clouds
2:00 PM 75.2 °F - 68.0 °F 78% 29.98 in 6.2 mi West 8.1 mph - N/A   Mostly Cloudy
2:14 PM 75.2 °F - 68.0 °F 78% 29.98 in 6.2 mi West 9.2 mph - N/A Rain , Thunderstorm Thunderstorms and Rain
2:41 PM 73.4 °F - 69.8 °F 88% 29.98 in 3.1 mi West 4.6 mph - N/A   Mostly Cloudy
3:00 PM 74 °F - 69 °F 79% 29.80 in 5 mi SSW 2.3 mph - - Rain Rain
3:00 PM 73.4 °F - 71.6 °F 94% 29.97 in 5.0 mi SSW 2.3 mph - N/A Fog , Rain Rain
3:28 PM 73.4 °F - 71.6 °F 94% 29.97 in 4.3 mi West 5.8 mph - N/A Fog Patches of Fog
4:00 PM 73.4 °F - 69.8 °F 88% 29.98 in 3.1 mi West 5.8 mph - N/A   Mostly Cloudy
4:14 PM 73.4 °F - 69.8 °F 88% 29.98 in 3.1 mi West 4.6 mph - N/A   Mostly Cloudy
4:41 PM 73.4 °F - 69.8 °F 88% 29.98 in 3.1 mi West 4.6 mph - N/A   Mostly Cloudy
5:00 PM 71.6 °F - 69.8 °F 94% 29.98 in 3.1 mi West 4.6 mph - N/A Rain Rain
6:00 PM 71 °F - 70 °F 95% 29.84 in 3 mi WNW 3.5 mph - -   Mist
6:00 PM 71.6 °F - 69.8 °F 94% 29.98 in 3.1 mi WNW 3.5 mph - N/A   Mostly Cloudy